weather.gov     
National Weather Service

Regional Weather Roundup
NWS Homepage
This page is being discontinued on March 12, 2014.
The same data is available at this site. Please update your bookmarks.
Thank you, and we apologize for the inconvenience.
Please send an email to SR-SRH.Webmaster@noaa.gov with any concerns.


Current Version
Previous Version:    01  02  03  04  05  06  07  08  09  10  11  12  13  14  15  16  17  18  19  20  21  22  23  24  25  26  27  28  29  30  
   31  32  33  34  35  36  37  38  39  40  41  42  43  44  45  46  47  48  49  50  51  52  53  54  55  56  57  58  59  60  
[Printable]
467
ASUS43 KMKX 260925
RWRWI

WISCONSIN REGIONAL WEATHER ROUNDUP
NATIONAL WEATHER SERVICE MILWAUKEE/SULLIVAN WI
400 AM CDT SUN OCT 26 2014

NOTE: "FAIR" INDICATES FEW OR NO CLOUDS BELOW 12,000 FEET WITH NO
SIGNIFICANT WEATHER AND/OR OBSTRUCTIONS TO VISIBILITY.

WIZ001-002-006>008-014>016-023>028-261000-
NORTHWEST WISCONSIN

CITY           SKY/WX    TMP DP  RH WIND       PRES   REMARKS
SUPERIOR ARPT  CLEAR     37  28  68 SW7       29.99S WCI  32
ASHLAND        CLEAR     34  27  75 SW7       29.98S WCI  28
HAYWARD        CLEAR     30  26  85 CALM      30.00S
SIREN          CLEAR     32  28  83 CALM      30.02R
CUMBERLAND     CLEAR     32  28  86 CALM      30.01S
RICE LAKE      CLEAR     35  28  73 CALM      30.02F
CHETEK         CLEAR     32  28  83 SW3       30.02S
LADYSMITH      CLEAR     32  29  89 CALM      30.02R
EAU CLAIRE     CLEAR     35  27  72 SW6       30.02S WCI  30
MENOMONIE      CLEAR     40  29  65 CALM      30.02F
NEW RICHMOND   CLEAR     32  28  85 CALM      30.02F
OSCEOLA        CLEAR     32  28  86 CALM      30.05F
$$

WIZ003>005-009-010-017-018-261000-
NORTH CENTRAL WISCONSIN

CITY           SKY/WX    TMP DP  RH WIND       PRES   REMARKS
MANITOWISH WTR CLEAR     33  27  76 W3        29.94F
ARBOR VITAE    CLEAR     39  30  69 NW3       29.95S
WOODRUFF       CLEAR     39  30  69 NW3       29.95S
RHINELANDER    CLEAR     32  24  72 W7        29.96S WCI  26
EAGLE RIVER    CLEAR     34  26  71 W6        29.94S WCI  29
LAND O LAKES   CLEAR     29  27  94 W3        29.94S
PHILLIPS       CLEAR     33  26  74 CALM      29.98R
TOMAHAWK       CLEAR     35  25  67 CALM      29.97S
MEDFORD        CLEAR     36  26  65 W6        29.98F WCI  31
MERRILL        CLEAR     37  26  66 W6        29.97S WCI  32
$$

WIZ029-030-035-036-043>047-261000-
CENTRAL WISCONSIN

CITY           SKY/WX    TMP DP  RH WIND       PRES   REMARKS
WAUSAU         CLEAR     40  27  59 NW5       29.97S
MOSINEE        CLEAR     37  27  65 W9        29.99S WCI  31
MARSHFIELD     CLEAR     39  26  59 W8        30.00S WCI  33
STEVENS POINT  CLEAR     38  26  60 W3        29.99S
WAUPACA        CLEAR     43  28  55 W5        29.98S
WAUTOMA        CLOUDY    37  28  70 W6        30.00S WCI  32
WISC RAPIDS    CLEAR     36  28  73 W3        30.01S
CAMP DOUGLAS   NOT AVBL
$$

WIZ011>013-019>022-031-037>040-048>050-261000-
NORTHEAST WISCONSIN

CITY           SKY/WX    TMP DP  RH WIND       PRES   REMARKS
ANTIGO         CLEAR     35  27  71 W6        29.95F WCI  30
SHAWANO        CLEAR     41  28  59 SW3       29.96R
OCONTO         CLEAR     37  28  69 W7        29.93S WCI  31
STURGEON BAY   CLEAR     46  30  53 W9        29.94R
GREEN BAY      CLEAR     40  29  64 W7        29.96R
MANITOWOC      CLEAR     45  28  51 W9        29.96R
APPLETON       CLEAR     36  28  75 W10       29.96F WCI  28
CLINTONVILLE   CLEAR     39  28  65 W6        29.96S WCI  35
OSHKOSH        CLEAR     42  28  57 W7        29.97S
$$

WIZ032>034-041-042-053>061-261000-
SOUTHWEST WISCONSIN

CITY           SKY/WX    TMP DP  RH WIND       PRES   REMARKS
LA CROSSE      CLEAR     39  34  82 S5        30.04S
SPARTA         CLEAR     28  27  96 CALM      30.04S
VIROQUA        CLEAR     39  29  66 SW5       30.04R
BOSCOBEL       CLEAR     32  30  92 CALM      30.05S
PRAIRIE DU CHI CLEAR     36  32  85 CALM      30.05S
PLATTEVILLE    CLEAR     42  31  65 NW6       30.04R
$$

WIZ056-057-062-063-064-067-068-261000-
SOUTH CENTRAL WISCONSIN

CITY           SKY/WX    TMP DP  RH WIND       PRES   REMARKS
REEDSBURG      CLEAR     37  31  81 CALM      30.02S
BARABOO/DELLS  CLEAR     36  29  75 CALM      30.01F
LONE ROCK      CLEAR     38  31  76 W6        30.04R WCI  33
MINERAL POINT  CLEAR     43  28  56 NW5       30.02S
MADISON        CLEAR     41  29  62 CALM      30.00F
MIDDLETON      CLEAR     41  29  63 CALM      30.01F
WATERTOWN      CLEAR     42  29  60 NW5       29.99S
MONROE         CLEAR     45  30  57 NW7       30.00F
JANESVILLE     CLEAR     41  30  65 W3        30.00F
$$

WIZ051-052-058>065-066-070>072-261000-
SOUTHEAST WISCONSIN

CITY           SKY/WX    TMP DP  RH WIND       PRES   REMARKS
MILWAUKEE      CLEAR     46  27  47 NW5       29.98S
WAUKESHA       CLEAR     41  28  60 NW5       29.99F
MILWAUKEE/TIMM CLEAR     41  27  56 NW8       29.99S
RACINE         CLEAR     46  28  49 W6        30.00S
BURLINGTON     CLEAR     41  28  61 W6        29.99S
KENOSHA        CLEAR     39  29  67 W5        29.99S
FOND DU LAC    CLEAR     43  27  53 W8        29.98S
SHEBOYGAN      CLEAR     43  31  62 NW9       29.96S
WEST BEND      CLEAR     43  27  52 W6        29.98S
JUNEAU         CLEAR     39  28  65 W5        30.01S
$$

LSZ147-162-261000-
LAKE SUPERIOR

STATION/POSITION TIME  TEMP    WIND        PRES    WAVE
                       AIR SEA DIR/SP/G            HT/PER
                 (UTC) (F)     (DEG/KT/KT) (MB)    (FT/S)
W MID LAKE BUOY  0850   47 45  260/ 14/ 16 1013.1F   2/ 4
DEVILS ISLAND    0900   47     260/ 16/ 18 1014.7R
PORT WING        0800   41     220/  2/  3 1015.2F
SAXON HARBOR     0800   37     200/  5/  7 1014.9R
$$

LMZ867-665-643>646-261000-
LAKE MICHIGAN

STATION/POSITION TIME  TEMP    WIND        PRES    WAVE
                       AIR SEA DIR/SP/G            HT/PER
                 (UTC) (F)     (DEG/KT/KT) (MB)    (FT/S)
CHAMBERS ISLAND  0800   48     240/  2/  9 1013.2R
N MID LAKE BUOY  0850   50 51  310/ 17/ 21 1011.5F   3/ 5
NORTHPORT PIER   0800   50     300/ 11/ 16 1012.2R
SISTER BAY       0813          320/ 20/ 22   N/A
ALGOMA LAKESHORE 0841          340/  4/  6   N/A
KEWAUNEE LAKESHO 0900   43     310/  7/  8 1012.9R
SHEBOYGAN LAKESH 0900   47 51  280/ 11/ 13 1014.8R
PORT WASHINGTON  0840   48     290/  4/  9 1015.6R
ATWATER BUOY     0900   50     280/ 12/ 16 1016.2S
MILWAUKEE LAKESH 0900   48     300/  6/  8   N/A
S MID LAKE BUOY  0850   54 54  310/ 17/ 19 1014.6R   3/ 5
KENOSHA   LAKESH 0900   48     300/ 10/ 13 1015.2S
$$

TC  - TEMPERATURE IN CELSIUS
VSB - VISIBILITY IN STATUTE MILES
WCI - WIND CHILL INDEX
HX  - HEAT INDEX





U.S. Dept. of Commerce
NOAA National Weather Service
1325 East West Highway
Silver Spring, MD 20910
E-mail: w-nws.webmaster@noaa.gov
Page last modified: May 16, 2007
NATIONAL WEATHER SERVICE: for Safety, for Work, for Fun - FOR LIFE